Вернуться в каталог

SL-12 R/B(2)

АктивенMEO
NORAD 21858·ROCKET BODY·🇷🇺 Russia

Запущен Jan 29, 1992 с Baikonur Cosmodrome

Loading…

Ближайшие Пролёты (ближайшие 24 часа)

TLE

СвежийSource: Space-Track

Эпоха: Sep 14, 2026, 01:56 UTC

1 21858U 92005F   26257.08093637 -.00000015  00000-0  00000-0 0  9995
2 21858  64.9578  66.4398 0007999  50.7539 143.7617  2.13216785258250

Отслеживайте SL-12 R/B(2) в реальном времени с AllMySat

Download on the App Store